Location: Unspecified
(52.4292°N, 19.3359°E)
Time: 04:56:16
(UTC+02:00)

A-11 Canister half - Pass Details

Date: 17 April 2026
Orbit: 1515 x 1684 km, 47.2° (Epoch: 11 May)

Event Time Altitude Azimuth Distance (km) Brightness Sun altitude
Rises 04:25:19 0° 191° (S) 4,645 11.1 -11.2°
Reaches altitude 10° 04:29:17 10° 176° (S) 3,674 10.7 -10.7°
Maximum altitude 04:35:35 21° 132° (SE) 2,938 10.7 -9.9°
Drops below altitude 10° 04:41:57 10° 89° (E) 3,744 12.1 -9.0°
Sets 04:46:01 0° 74° (ENE) 4,759 13.4 -8.5°
